Regional Weather Roundup
Issued by NWS

Home | Current Version | Previous Version | Text Only | Print | Product List | Glossary Off
Versions: 1 2 3 4 5 6 7 8 9 10 11 12 13 14 15 16 17 18 19 20 21 22 23 24 25 26 27 28 29 30 31 32 33 34 35 36 37 38 39 40 41 42 43 44 45 46 47 48 49 50

000
ASUS43 KMKX 180900
RWRWI

WISCONSIN REGIONAL WEATHER ROUNDUP
NATIONAL WEATHER SERVICE MILWAUKEE/SULLIVAN WI
400 AM CDT THU SEP 18 2014

NOTE: "FAIR" INDICATES FEW OR NO CLOUDS BELOW 12,000 FEET WITH NO
SIGNIFICANT WEATHER AND/OR OBSTRUCTIONS TO VISIBILITY.

WIZ001-002-006>008-014>016-023>028-181000-
NORTHWEST WISCONSIN

CITY           SKY/WX    TMP DP  RH WIND       PRES   REMARKS
SUPERIOR ARPT  CLOUDY    43  37  80 E9        30.15F
ASHLAND        CLOUDY    44  39  82 NE7       30.16S
HAYWARD        CLOUDY    45  42  89 NE3       30.12S
SIREN          CLOUDY    46  42  87 NE6       30.10S
RICE LAKE      PTCLDY    44  43  95 NE6       30.11S
LADYSMITH      MOCLDY    46  45  94 NE5       30.12S
EAU CLAIRE     NOT AVBL
MENOMONIE      SUNNY     46  45  96 N5        30.08S
NEW RICHMOND   CLEAR     45  45  98 NE3       30.07S
OSCEOLA        CLEAR     46  46 100 CALM      30.11S
$$

WIZ003>005-009-010-017-018-181000-
NORTH CENTRAL WISCONSIN

CITY           SKY/WX    TMP DP  RH WIND       PRES   REMARKS
WOODRUFF       CLOUDY    42  39  90 NE3       30.13S
RHINELANDER    CLOUDY    43  41  93 E5        30.13S
EAGLE RIVER    CLOUDY    40  38  92 CALM      30.13S
LAND O LAKES   CLOUDY    38  36  93 E5        30.15S WCI  34
PHILLIPS       CLOUDY    46  43  91 E5        30.11S
TOMAHAWK       CLOUDY    46  42  87 E5        30.13S
MEDFORD        CLOUDY    49  47  95 E6        30.10R
MERRILL        CLOUDY    48  45  90 E6        30.12R
$$

WIZ029-030-035-036-043>047-181000-
CENTRAL WISCONSIN

CITY           SKY/WX    TMP DP  RH WIND       PRES   REMARKS
WAUSAU         CLOUDY    46  43  89 E7        30.11R
MOSINEE        CLOUDY    45  45 100 E8        30.12S
MARSHFIELD     CLEAR     46  44  93 E9        30.10R
STEVENS POINT  CLOUDY    43  41  93 E8        30.12R
WAUPACA        CLOUDY    49  46  87 NE6       30.13R
WAUTOMA        NOT AVBL
WISC RAPIDS    CLOUDY    48  45  89 E9        30.12R
CAMP DOUGLAS   CLOUDY    50  50 100 E6        30.09R
$$

WIZ011>013-019>022-031-037>040-048>050-181000-
NORTHEAST WISCONSIN

CITY           SKY/WX    TMP DP  RH WIND       PRES   REMARKS
ANTIGO         CLOUDY    42  40  94 E7        30.13S
STURGEON BAY   CLOUDY    45  37  76 NE9       30.14S
GREEN BAY      CLOUDY    47  42  83 N10       30.14R
MANITOWOC      NOT AVBL
APPLETON       CLOUDY    46  43  87 N12       30.12R
CLINTONVILLE   CLOUDY    45  41  87 E7        30.14R
OSHKOSH        CLOUDY    50  45  83 NE12      30.11R
$$

WIZ032>034-041-042-053>061-181000-
SOUTHWEST WISCONSIN

CITY           SKY/WX    TMP DP  RH WIND       PRES   REMARKS
LA CROSSE      MOCLDY    51  49  92 SE5       30.06R FOG
SPARTA         CLEAR     42  41  99 CALM      30.08R
VIROQUA        FAIR      51  51 100 CALM      30.06S
BOSCOBEL       FOG       51  50  96 CALM      30.07R VSB 1/4
PRAIRIE DU CHI CLOUDY    48  47  95 CALM      30.06R FOG
PLATTEVILLE    FAIR      50  47  91 CALM      30.06S
$$

WIZ056-057-062-063-064-067-068-181000-
SOUTH CENTRAL WISCONSIN

CITY           SKY/WX    TMP DP  RH WIND       PRES   REMARKS
BARABOO/DELLS  FOG       50  48  94 NE8       30.09R VSB<1/4
LONE ROCK      HAZE      51  46  83 CALM      30.07R VSB 3/4
WATERTOWN      MOCLDY    49  49 100 NE6       30.08R
MADISON        PTCLDY    50  48  93 NE7       30.08R FOG
MIDDLETON      FAIR      46  46  99 CALM      30.08R
MONROE         CLEAR     52  50  93 CALM      30.06S
JANESVILLE     CLEAR     46  45  93 CALM      30.06S
$$

WIZ051-052-058>065-066-070>072-181000-
SOUTHEAST WISCONSIN

CITY           SKY/WX    TMP DP  RH WIND       PRES   REMARKS
MILWAUKEE      CLOUDY    53  50  89 N9        30.09R
WAUKESHA       MOCLDY    46  46 100 NE5       30.10R
MILWAUKEE/TIMM CLOUDY    50  46  87 N9        30.09S
RACINE         CLOUDY    54  52  93 N12       30.09R
BURLINGTON     CLEAR     43  43 100 CALM      30.08R
KENOSHA        MOCLDY    51  50  96 N7        30.08R
FOND DU LAC    PTCLDY    49  44  83 NE10      30.11S
SHEBOYGAN      PTCLDY    48  44  86 N10       30.11R
WEST BEND      PTCLDY    46  45  93 N5        30.09S
JUNEAU         CLOUDY    50  49  97 NE9       30.10R
$$

LSZ147-162-181000-
LAKE SUPERIOR

STATION/POSITION TIME  TEMP    WIND        PRES    WAVE
                       AIR SEA DIR/SP/G            HT/PER
                 (UTC) (F)     (DEG/KT/KT) (MB)    (FT/S)
W MID LAKE BUOY  0750   44 47  120/ 10/ 12 1022.3R   2/ 6
DEVILS ISLAND    0800   44     110/ 15/ 18 1022.4R
PORT WING        0840   45      60/  9/ 12 1021.3F
SAXON HARBOR     0800   45      80/  9/ 12 1021.3
$$

LMZ867-665-643>646-181000-
LAKE MICHIGAN

STATION/POSITION TIME  TEMP    WIND        PRES    WAVE
                       AIR SEA DIR/SP/G            HT/PER
                 (UTC) (F)     (DEG/KT/KT) (MB)    (FT/S)
N MID LAKE BUOY  0750   48 57   20/ 14/ 19 1020.1R   3/ 5
NORTHPORT PIER   0800   45      20/  9/ 13 1021.0R
KEWAUNEE LAKESHO 0800   48      30/ 13/ 20 1018.7R
SHEBOYGAN LAKESH 0800   50 48   10/ 17/ 18 1019.4R
PORT WASHINGTON  0800   52     360/  6/  9 1019.3S
ATWATER BUOY     0800   55     360/ 19/ 23 1019.1R
MILWAUKEE LAKESH 0800   54     360/ 14/ 18   N/A
S MID LAKE BUOY  0750   63 65  240/  6/  8 1017.5R   0
KENOSHA   LAKESH 0800   55     350/ 12/ 18 1017.9R
$$

TC  - TEMPERATURE IN CELSIUS
VSB - VISIBILITY IN STATUTE MILES
WCI - WIND CHILL INDEX
HX  - HEAT INDEX




USA.gov is the U.S. government's official web portal to all federal, state and local government web resources and services.